Hourly Weather Kozlovka

Today, 22 October, Thursday

Time Temperature Precipitation Wind Pressure Humidity
00:00 +5°C° 0 mm 2 mps 745 mmHg 96%
01:00 +6°C° 0 mm 1 mps 745 mmHg 96%
02:00 +6°C° 0 mm 1 mps 745 mmHg 96%
03:00 +5°C° 0 mm 2 mps 745 mmHg 96%
04:00 +5°C° 0 mm 2 mps 744 mmHg 96%
05:00 +4°C° 0 mm 2 mps 744 mmHg 96%
06:00 +4°C° 0 mm 3 mps 744 mmHg 94%
07:00 +5°C° 0 mm 3 mps 744 mmHg 92%
08:00 +5°C° 0 mm 4 mps 744 mmHg 90%
09:00 +5°C° 0.3 mm 4 mps 743 mmHg 91%
10:00 +6°C° 0.3 mm 4 mps 743 mmHg 92%
11:00 +6°C° 0.3 mm 4 mps 743 mmHg 93%
12:00 +6°C° 0.1 mm 4 mps 743 mmHg 92%
13:00 +7°C° 0.1 mm 5 mps 742 mmHg 90%
14:00 +7°C° 0.1 mm 5 mps 742 mmHg 89%
15:00 +7°C° 0 mm 5 mps 741 mmHg 88%
16:00 +7°C° 0 mm 5 mps 741 mmHg 88%
17:00 +7°C° 0 mm 5 mps 740 mmHg 87%
18:00 +8°C° 0 mm 5 mps 740 mmHg 88%
19:00 +8°C° 0 mm 5 mps 740 mmHg 89%
20:00 +8°C° 0 mm 5 mps 740 mmHg 90%
21:00 +8°C° 0 mm 5 mps 740 mmHg 90%
22:00 +9°C° 0 mm 6 mps 740 mmHg 90%
23:00 +9°C° 0 mm 6 mps 740 mmHg 90%

Tomorrow, 23 October, Friday

Time Temperature Precipitation Wind Pressure Humidity
00:00 +9°C° 0 mm 6 mps 740 mmHg 90%
01:00 +9°C° 0 mm 6 mps 741 mmHg 91%
02:00 +9°C° 0 mm 6 mps 741 mmHg 91%
03:00 +9°C° 0 mm 5 mps 741 mmHg 92%
04:00 +8°C° 0 mm 5 mps 741 mmHg 93%
05:00 +8°C° 0 mm 4 mps 741 mmHg 95%
06:00 +8°C° 0 mm 4 mps 741 mmHg 95%
07:00 +8°C° 0 mm 4 mps 741 mmHg 95%
08:00 +8°C° 0 mm 4 mps 741 mmHg 95%
09:00 +10°C° 0 mm 4 mps 741 mmHg 92%
10:00 +10°C° 0 mm 5 mps 741 mmHg 88%
11:00 +12°C° 0 mm 5 mps 741 mmHg 85%
12:00 +13°C° 0 mm 5 mps 740 mmHg 83%
13:00 +13°C° 0 mm 5 mps 740 mmHg 81%
14:00 +14°C° 0 mm 5 mps 739 mmHg 79%
15:00 +13°C° 0.9 mm 5 mps 739 mmHg 83%
16:00 +13°C° 0.9 mm 6 mps 738 mmHg 86%
17:00 +11°C° 0.9 mm 6 mps 738 mmHg 90%
18:00 +11°C° 0.8 mm 6 mps 738 mmHg 90%
19:00 +11°C° 0.8 mm 6 mps 738 mmHg 90%
20:00 +12°C° 0.8 mm 5 mps 738 mmHg 90%
21:00 +10°C° 0 mm 5 mps 738 mmHg 91%
22:00 +9°C° 0 mm 5 mps 739 mmHg 92%
23:00 +9°C° 0 mm 5 mps 739 mmHg 93%

Day after tomorrow, 24 October, Saturday

Time Temperature Precipitation Wind Pressure Humidity
00:00 +8°C° 0 mm 4 mps 739 mmHg 93%
01:00 +8°C° 0 mm 4 mps 740 mmHg 93%
02:00 +7°C° 0 mm 4 mps 740 mmHg 94%
03:00 +8°C° 0 mm 3 mps 740 mmHg 94%
04:00 +7°C° 0 mm 3 mps 740 mmHg 95%
05:00 +7°C° 0 mm 2 mps 740 mmHg 96%
06:00 +7°C° 0 mm 2 mps 741 mmHg 96%
07:00 +7°C° 0 mm 2 mps 741 mmHg 95%
08:00 +7°C° 0 mm 2 mps 741 mmHg 95%
09:00 +8°C° 0 mm 2 mps 741 mmHg 91%
10:00 +9°C° 0 mm 2 mps 741 mmHg 88%
11:00 +10°C° 0 mm 2 mps 742 mmHg 85%
12:00 +10°C° 0 mm 2 mps 741 mmHg 83%
13:00 +10°C° 0 mm 2 mps 741 mmHg 81%
14:00 +12°C° 0 mm 2 mps 741 mmHg 79%
15:00 +10°C° 0 mm 2 mps 741 mmHg 82%
16:00 +10°C° 0 mm 2 mps 741 mmHg 85%
17:00 +10°C° 0 mm 1 mps 740 mmHg 88%
18:00 +10°C° 0.1 mm 1 mps 740 mmHg 90%
19:00 +10°C° 0.1 mm 1 mps 740 mmHg 91%
20:00 +9°C° 0.1 mm 0 mps 740 mmHg 92%
21:00 +10°C° 1.5 mm 1 mps 740 mmHg 94%
22:00 +9°C° 1.5 mm 1 mps 740 mmHg 96%
23:00 +9°C° 1.5 mm 1 mps 739 mmHg 97%

, 25 October, Sunday

Time Temperature Precipitation Wind Pressure Humidity
00:00 +9°C° 1.3 mm 1 mps 739 mmHg 97%
01:00 +9°C° 1.3 mm 1 mps 739 mmHg 97%
02:00 +9°C° 1.3 mm 1 mps 739 mmHg 97%
03:00 +9°C° 0 mm 1 mps 740 mmHg 97%
04:00 +7°C° 0 mm 2 mps 740 mmHg 96%
05:00 +7°C° 0 mm 2 mps 740 mmHg 96%
06:00 +7°C° 0 mm 3 mps 740 mmHg 95%
07:00 +8°C° 0 mm 3 mps 741 mmHg 94%
08:00 +7°C° 0 mm 4 mps 741 mmHg 93%
09:00 +7°C° 0 mm 4 mps 742 mmHg 88%
10:00 +8°C° 0 mm 5 mps 742 mmHg 83%
11:00 +9°C° 0 mm 5 mps 743 mmHg 79%
12:00 +9°C° 0 mm 5 mps 743 mmHg 77%
13:00 +9°C° 0 mm 5 mps 743 mmHg 76%
14:00 +9°C° 0 mm 5 mps 744 mmHg 74%
15:00 +8°C° 0 mm 4 mps 744 mmHg 75%
16:00 +8°C° 0 mm 4 mps 745 mmHg 76%
17:00 +8°C° 0 mm 3 mps 745 mmHg 78%
18:00 +7°C° 0 mm 3 mps 746 mmHg 81%
19:00 +7°C° 0 mm 2 mps 746 mmHg 84%
20:00 +6°C° 0 mm 2 mps 747 mmHg 87%
21:00 +6°C° 0 mm 2 mps 747 mmHg 89%
22:00 +5°C° 0 mm 2 mps 747 mmHg 91%
23:00 +5°C° 0 mm 2 mps 748 mmHg 92%

25 October, Sunday

Time Temperature Precipitation Wind Pressure Humidity
00:00 +9°C° 1.3 mm 1 mps 739 mmHg 97%
01:00 +9°C° 1.3 mm 1 mps 739 mmHg 97%
02:00 +9°C° 1.3 mm 1 mps 739 mmHg 97%
03:00 +9°C° 0 mm 1 mps 740 mmHg 97%
04:00 +7°C° 0 mm 2 mps 740 mmHg 96%
05:00 +7°C° 0 mm 2 mps 740 mmHg 96%
06:00 +7°C° 0 mm 3 mps 740 mmHg 95%
07:00 +8°C° 0 mm 3 mps 741 mmHg 94%
08:00 +7°C° 0 mm 4 mps 741 mmHg 93%
09:00 +7°C° 0 mm 4 mps 742 mmHg 88%
10:00 +8°C° 0 mm 5 mps 742 mmHg 83%
11:00 +9°C° 0 mm 5 mps 743 mmHg 79%
12:00 +9°C° 0 mm 5 mps 743 mmHg 77%
13:00 +9°C° 0 mm 5 mps 743 mmHg 76%
14:00 +9°C° 0 mm 5 mps 744 mmHg 74%
15:00 +8°C° 0 mm 4 mps 744 mmHg 75%
16:00 +8°C° 0 mm 4 mps 745 mmHg 76%
17:00 +8°C° 0 mm 3 mps 745 mmHg 78%
18:00 +7°C° 0 mm 3 mps 746 mmHg 81%
19:00 +7°C° 0 mm 2 mps 746 mmHg 84%
20:00 +6°C° 0 mm 2 mps 747 mmHg 87%
21:00 +6°C° 0 mm 2 mps 747 mmHg 89%
22:00 +5°C° 0 mm 2 mps 747 mmHg 91%
23:00 +5°C° 0 mm 2 mps 748 mmHg 92%

26 October, Monday

Time Temperature Precipitation Wind Pressure Humidity
00:00 +6°C° 0 mm 1 mps 748 mmHg 93%
01:00 +5°C° 0 mm 1 mps 748 mmHg 93%
02:00 +5°C° 0 mm 1 mps 748 mmHg 93%
03:00 +5°C° 0 mm 1 mps 749 mmHg 93%
04:00 +5°C° 0 mm 1 mps 749 mmHg 92%
05:00 +3°C° 0 mm 0 mps 749 mmHg 92%
06:00 +4°C° 0 mm 0 mps 750 mmHg 91%
07:00 +4°C° 0 mm 0 mps 750 mmHg 90%
08:00 +4°C° 0 mm 0 mps 750 mmHg 89%
09:00 +7°C° 0 mm 1 mps 750 mmHg 83%
10:00 +8°C° 0 mm 1 mps 750 mmHg 77%
11:00 +9°C° 0 mm 1 mps 751 mmHg 72%
12:00 +10°C° 0 mm 1 mps 751 mmHg 71%
13:00 +10°C° 0 mm 1 mps 751 mmHg 70%
14:00 +9°C° 0 mm 2 mps 751 mmHg 69%
15:00 +8°C° 0 mm 2 mps 750 mmHg 75%
16:00 +7°C° 0 mm 2 mps 750 mmHg 80%
17:00 +6°C° 0 mm 2 mps 750 mmHg 86%
18:00 +6°C° 0 mm 2 mps 750 mmHg 88%
19:00 +5°C° 0 mm 2 mps 751 mmHg 90%
20:00 +5°C° 0 mm 2 mps 751 mmHg 91%
21:00 +5°C° 0 mm 2 mps 751 mmHg 92%
22:00 +4°C° 0 mm 2 mps 751 mmHg 92%
23:00 +4°C° 0 mm 2 mps 751 mmHg 93%

27 October, Tuesday

Time Temperature Precipitation Wind Pressure Humidity
00:00 +4°C° 0 mm 2 mps 751 mmHg 93%
01:00 +4°C° 0 mm 2 mps 751 mmHg 94%
02:00 +4°C° 0 mm 2 mps 751 mmHg 94%
03:00 +3°C° 0 mm 2 mps 751 mmHg 94%
04:00 +3°C° 0 mm 2 mps 751 mmHg 94%
05:00 +2°C° 0 mm 3 mps 750 mmHg 94%
06:00 +3°C° 0 mm 3 mps 750 mmHg 93%
07:00 +3°C° 0 mm 3 mps 750 mmHg 92%
08:00 +3°C° 0 mm 3 mps 750 mmHg 91%
09:00 +4°C° 0 mm 3 mps 750 mmHg 87%
10:00 +7°C° 0 mm 3 mps 750 mmHg 83%
11:00 +7°C° 0 mm 4 mps 750 mmHg 79%
12:00 +7°C° 0 mm 4 mps 750 mmHg 78%
13:00 +8°C° 0 mm 4 mps 750 mmHg 77%
14:00 +8°C° 0 mm 4 mps 750 mmHg 76%
15:00 +9°C° 0 mm 3 mps 750 mmHg 80%
16:00 +8°C° 0 mm 3 mps 750 mmHg 83%
17:00 +7°C° 0 mm 3 mps 750 mmHg 86%
18:00 +7°C° 0 mm 3 mps 750 mmHg 85%
19:00 +7°C° 0 mm 3 mps 750 mmHg 84%
20:00 +7°C° 0 mm 3 mps 750 mmHg 83%
21:00 +7°C° 0 mm 3 mps 750 mmHg 83%
22:00 +7°C° 0 mm 3 mps 750 mmHg 82%
23:00 +8°C° 0 mm 3 mps 750 mmHg 81%
Show more